Weather Roundup
Issued by NWS Springfield, MO

Home | Current Version | Previous Version | Text Only | Print | Product List | Glossary On
Versions: 1 2 3 4 5 6 7 8 9 10 11 12 13 14 15 16 17 18 19 20 21 22 23 24 25 26 27 28 29 30 31 32 33 34 35 36 37 38 39 40 41 42 43 44 45 46 47 48 49 50
000
NZUS99 KSGF 081907
HRRSGF

HOURLY WEATHER
NATIONAL WEATHER SERVICE SPRINGFIELD MO
100 PM CST THU DEC 08 2016

......SGF CWA......

CITY           SKY/WX    TMP DP  RH WIND       PRES   REMARKS
SPRINGFIELD    SUNNY     28  13  53 NW8G22    30.55F WCI  20
JOPLIN         SUNNY     28  13  53 NW13      30.63F WCI  17
WEST PLAINS    SUNNY     31  11  43 NW12G21   30.51F WCI  22
ROLLA          SUNNY     27  13  55 W16G22    30.49F WCI  15
OSAGE BEACH    SUNNY     30  15  53 NW8       30.55F WCI  22
BRANSON        PTSUNNY   28   9  43 NW8G18    30.55F WCI  20

......SURROUNDING SGF CWA......

CITY           SKY/WX    TMP DP  RH WIND       PRES   REMARKS
CHANUTE        SUNNY     27  15  61 NW13      30.64F WCI  16
PARSONS        SUNNY     29  12  49 NW10      30.66F WCI  20
COFFEYVILLE    SUNNY     29  12  49 NW13      30.67F WCI  19
EMPORIA        SUNNY     23  12  62 NW15      30.64F WCI  10
GROVE OK       SUNNY     30  14  51 NW9       30.65F WCI  22
ROGERS AR      SUNNY     29  11  47 NW9       30.58F WCI  20
SILOAM SPRINGS SUNNY     28  10  47 N13       30.59F WCI  18
HARRISON AR    SUNNY     29   9  43 NW13      30.53F WCI  19
NEAR YELLVILLE SUNNY     32   9  37 NW9       30.53F WCI  24

......KANSAS AND MISSOURI......

CITY           SKY/WX    TMP DP  RH WIND       PRES   REMARKS
KANSAS CTY INT MOSUNNY   23   9  55 NW13      30.60F WCI  11
DOWNTOWN KC      N/A     25  11  55 W13       30.62F WCI  14
COLUMBIA       SUNNY     25  10  53 NW16G24   30.53F WCI  12
SEDALIA        MOSUNNY   24  12  60 W14       30.57F WCI  12
ST JOSEPH      SUNNY     24   9  52 NW15      30.61F WCI  11
ST LOUIS       MOSUNNY   30  11  45 W23       30.49F WCI  17
SPIRIT OF STL  MOSUNNY   30  13  49 W12       30.50F WCI  20
KIRKSVILLE     SUNNY     25  10  53 NW14      30.51S WCI  13
WICHITA        MOSUNNY   28   7  41 N13       30.65F WCI  17
TOPEKA         SUNNY     25  11  55 NW12      30.64F WCI  14
OLATHE         SUNNY     23  10  57 NW12      30.60F WCI  12

......TENNESSEE......

CITY           SKY/WX    TMP DP  RH WIND       PRES   REMARKS
MEMPHIS        CLOUDY    37  17  44 N8G16     30.49F WCI  31
NASHVILLE      PTSUNNY   40  15  36 N12       30.40F WCI  33

......ARKANSAS.......

CITY           SKY/WX    TMP DP  RH WIND       PRES   REMARKS
FAYETTEVILLE   SUNNY     29  11  47 N14       30.58F WCI  18
FT SMITH       SUNNY     35   9  33 NW10      30.61F WCI  27
LITTLE ROCK    CLOUDY    39  14  36 N14       30.54F WCI  31

......OKLAHOMA.......

CITY           SKY/WX    TMP DP  RH WIND       PRES   REMARKS
TULSA          MOSUNNY   33  10  38 NW13G20   30.66F WCI  24
PONCA CITY     SUNNY     30   5  34 N8G18     30.69F WCI  22
MCALESTER      SUNNY     35  11  36 N14       30.64F WCI  26
OKLAHOMA CITY  MOSUNNY   30   6  36 N16G24    30.66F WCI  19

......IOWA............

CITY           SKY/WX    TMP DP  RH WIND       PRES   REMARKS
DES MOINES     PTSUNNY   22   9  57 NW21G29   30.50F WCI   6
QUAD CITIES    FLURRIES  21  11  65 W21G28    30.41F WCI   5

......ILLINOIS........

CITY           SKY/WX    TMP DP  RH WIND       PRES   REMARKS
QUINCY         PTSUNNY   25  11  55 W17       30.48S WCI  12
CHICAGO        CLOUDY    20  12  71 W18G26    30.28R WCI   5




USA.gov is the U.S. government's official web portal to all federal, state and local government web resources and services.